Starlink 4634

operational
NORAD ID: 53967 Int'l Des: 2022-125 Owner: SPXS Country: US Constellation: starlink
LEOCIRCULAR

Über Starlink 4634

Beschreibung wird geladen...

Live-Position

3D-Globus wird geladen...

Nächste Überflüge

Höhenverlauf

Altitude vs Time

uPlot chart will show altitude changes over time

Zweizeiliger Elementsatz

1 53967U 22125D 25305.79361790 -.00000439 00000-0 -95154-5 0 9996
2 53967 53.2175 78.3039 0001277 89.5259 270.5879 15.08832163170014
Epoch: 1. Nov. 2025 • Age: 29 hours

Aktueller Status

Höhe 539.7 km
Geschwindigkeit 7.60 km/s
Subsatellitenpunkt 17.81°N, 168.89°W
Startdatum 5. Okt. 2022
Alter 3 years
Typ internet

Technische Details

Klassifizierung Payload
Masse 305.00 kg
Trockenmasse 290.00 kg
Gesamtmasse 305.00 kg
Länge 0.20 m
Durchmesser 2.80 m
Spannweite 9.00 m
Form Box + pan
Hersteller SPXS
Bus-Typ Starlink
Phasenstatus In Orbit
Besitzer/Staat SPXS/US

Große Konstellationen

Loading constellations...